Regional Weather Roundup
Issued by NWS

Home | Current Version | Previous Version | Text Only | Print | Product List | Glossary On
Versions: 1 2 3 4 5 6 7 8 9 10 11 12 13 14 15 16 17 18 19 20 21 22 23 24 25 26 27 28
000
ASUS45 KBOI 221510
RWRID

IDAHO REGIONAL WEATHER ROUNDUP
NATIONAL WEATHER SERVICE BOISE ID
900 AM MDT TUE AUG 22 2017

NOTE: "FAIR" INDICATES FEW OR NO CLOUDS BELOW 12000 FEET
WITH NO SIGNIFICANT WEATHER AND/OR OBSTRUCTIONS TO VISIBILITY

IDZ012-014-221600-
SOUTHWEST IDAHO


CITY           SKY/WX    TMP DP  RH WIND       PRES   REMARKS
BOISE          SUNNY     69  39  33 SE3       30.12R
CALDWELL       SUNNY     62  46  55 CALM      30.12R
MOUNTAIN HOME  SUNNY     65  41  42 E8        30.14R
$$

IDZ016-017-221600-
SOUTHCENTRAL IDAHO


CITY           SKY/WX    TMP DP  RH WIND       PRES   REMARKS
BURLEY         SUNNY     56  45  66 CALM      30.20R
JEROME         SUNNY     67  39  35 E8        30.20R
TWIN FALLS     SUNNY     69  41  36 S3        30.20R
$$

IDZ019>023-221600-
SOUTHEAST IDAHO


CITY           SKY/WX    TMP DP  RH WIND       PRES   REMARKS
IDAHO FALLS    SUNNY     55  44  66 N6        30.27R
POCATELLO      SUNNY     57  38  48 NW3       30.25R
REXBURG        SUNNY     52  41  66 CALM      30.28R
$$

IDZ006-010-011-018-031-032-221600-
CENTRAL IDAHO MOUNTAINS


CITY           SKY/WX    TMP DP  RH WIND       PRES   REMARKS
MCCALL         SUNNY     53  39  59 CALM      30.24R
HAILEY         SUNNY     55  37  50 NW12      30.30S
STANLEY          N/A     45  33  63 CALM      30.38R
SALMON         SUNNY     52  40  63 CALM      30.26R
CHALLIS        SUNNY     56  36  47 CALM      30.29R
$$

IDZ002-004-006-007-026-221600-
NORTHERN IDAHO


CITY           SKY/WX    TMP DP  RH WIND       PRES   REMARKS
LEWISTON       SUNNY     66  46  48 NE5       30.06R
LOWELL           N/A     55  47  74 CALM      30.15S
COEUR D`ALENE  SUNNY     64  48  56 NE8       30.11R
MULLAN PASS    SUNNY     61  34  36 SE6       30.27R
$$




USA.gov is the U.S. government's official web portal to all federal, state and local government web resources and services.